2025-292F (66998 NORAD) Tracking and Keplerian Element Data

This shows tracking and keplerian element data for the satellite.

Feedback or suggestion? Click here.




ElementValue
Catalog66998
Name2025-292F
Epoch Orbit151
Epoch Day354.18704054
Epoch Year2025
RAAN66.6754
Inclination97.6557
Eccentricity0.00147
Argument of Perigee249.994
Mean Anonmoly109.9704
Mean Motion15.04896854
Decay Rate3.234E-05
L11 66998U 25292F 25354.18704054 .00003234 00000+0 23243-3 0 9994
L22 66998 97.6557 66.6754 0014700 249.9940 109.9704 15.04896854 1519



Live tracking and technical data element details for 2025-292F (NORAD 66998). 2025-292F can be tracked NOW for your location showing map with azimuth and elevation plus other details from your city location.







IsCatalogInMostPopularTable: catalog: 66998, numindb: 13
Update: records affected: 1



GetName: 66998 2025-292F

Hit Count: updated at: Fri, 16 Jan 2026 09:19:52 GMT